QPF
0.01 0.01 0.00 0.00 0.00 0.00 0.00 0.00 0.00 0.00 0.00 0.00 0.00 0.00 0.00 0.01 0.01 0.01 0.00 0.00 0.00 0.00 0.00 0.00 0.00 0.00 0.00 0.00 0.00 0.00 0.00 0.00
0.00 0.01 0.01 0.00 0.00 0.00 0.00 0.00 0.00 0.00 0.00 0.00 0.00 0.00 0.00 0.01 0.01 0.00 0.00 0.00 0.00 0.00 0.00 0.00 0.00 0.00 0.00 0.00 0.00 0.00 0.00 0.00
0.00 0.01 0.00 0.00 0.00 0.00 0.00 0.00 0.00 0.00 0.00 0.00 0.00 0.00 0.00 0.00 0.00 0.00 0.00 0.00 0.00 0.00 0.00 0.00 0.00 0.00 0.00 0.00 0.00 0.00 0.00 0.00
0.00 0.00 0.00 0.00 0.00 0.00 0.00 0.00 0.00 0.00 0.00 0.00 0.00 0.00 0.00 0.00 0.00 0.00 0.00 0.00 0.00 0.00 0.00 0.00 0.00 0.00 0.00 0.00 0.00 0.00 0.00 0.00
0.00 0.00 0.00 0.00 0.00 0.00 0.00 0.00 0.00 0.00 0.00 0.00 0.00 0.00 0.00 0.00 0.00 0.00 0.00 0.00 0.00 0.00 0.00 0.00 0.00 0.00 0.00 0.00 0.00 0.00 0.00 0.00
0.00 0.00 0.00 0.00 0.00 0.00 0.00 0.00 0.00 0.00 0.00 0.00 0.00 0.00 0.01 0.00 0.00 0.00 0.00 0.00 0.00 0.00 0.00 0.00 0.00 0.00 0.00 0.00 0.00 0.00 0.00 0.00
0.00 0.00 0.00 0.00 0.00 0.00 0.00 0.00 0.00 0.00 0.00 0.00 0.00 0.00 0.00 0.00 0.00 0.00 0.00 0.00 0.00 0.00 0.00 0.00 0.00 0.00 0.00 0.00 0.00 0.00 0.00 0.00
0.00 0.00 0.00 0.00 0.00 0.00 0.00 0.00 0.00 0.00 0.00 0.00 0.00 0.00 0.00 0.00 0.00 0.00 0.00 0.00 0.00 0.00 0.00 0.00 0.00 0.00 0.00 0.00 0.00 0.00 0.00 0.00
0.02 0.00 0.00 0.00 0.00 0.00 0.00 0.00 0.00 0.00 0.00 0.00 0.00 0.00 0.00 0.00 0.00 0.00 0.00 0.00 0.00 0.00 0.00 0.00 0.00 0.00 0.00 0.00 0.00 0.00 0.00 0.00
0.02 0.00 0.00 0.00 0.00 0.00 0.00 0.00 0.00 0.00 0.00 0.00 0.00 0.00 0.00 0.00 0.00 0.00 0.00 0.00 0.00 0.00 0.00 0.00 0.00 0.00 0.00 0.00 0.00 0.00 0.00 0.00
0.06 0.01 0.00 0.00 0.00 0.00 0.00 0.00 0.00 0.00 0.00 0.00 0.00 0.00 0.00 0.00 0.00 0.00 0.00 0.00 0.00 0.00 0.00 0.00 0.00 0.00 0.00 0.00 0.00 0.00 0.00 0.00
0.16 0.03 0.02 0.00 0.00 0.00 0.00 0.00 0.00 0.00 0.00 0.00 0.00 0.00 0.00 0.00 0.00 0.00 0.00 0.00 0.00 0.00 0.00 0.00 0.00 0.00 0.00 0.00 0.00 0.00 0.00 0.00
0.10 0.06 0.03 0.02 0.00 0.00 0.00 0.00 0.00 0.00 0.00 0.01 0.01 0.00 0.00 0.00 0.00 0.00 0.00 0.00 0.00 0.00 0.00 0.00 0.00 0.00 0.00 0.00 0.00 0.00 0.00 0.00
0.08 0.09 0.04 0.03 0.01 0.00 0.00 0.00 0.00 0.00 0.00 0.02 0.04 0.02 0.02 0.00 0.00 0.00 0.00 0.00 0.00 0.00 0.00 0.00 0.00 0.00 0.00 0.00 0.00 0.00 0.00 0.00
0.03 0.08 0.08 0.03 0.01 0.00 0.00 0.00 0.00 0.00 0.00 0.02 0.04 0.06 0.04 0.01 0.00 0.00 0.00 0.00 0.00 0.00 0.00 0.00 0.00 0.00 0.00 0.00 0.00 0.00 0.00 0.00
0.05 0.10 0.10 0.06 0.02 0.00 0.00 0.00 0.00 0.00 0.00 0.00 0.00 0.02 0.05 0.03 0.00 0.00 0.00 0.00 0.00 0.00 0.00 0.00 0.00 0.00 0.00 0.00 0.00 0.00 0.00 0.00
0.01 0.05 0.06 0.05 0.03 0.00 0.00 0.00 0.00 0.00 0.00 0.00 0.02 0.02 0.02 0.02 0.01 0.00 0.00 0.00 0.00 0.00 0.00 0.00 0.00 0.00 0.00 0.00 0.00 0.00 0.00 0.00
0.00 0.05 0.04 0.02 0.01 0.00 0.00 0.00 0.00 0.00 0.00 0.00 0.03 0.05 0.02 0.02 0.03 0.02 0.01 0.00 0.00 0.00 0.00 0.00 0.00 0.00 0.00 0.00 0.00 0.00 0.00 0.00
0.00 0.04 0.04 0.01 0.00 0.00 0.00 0.00 0.00 0.00 0.00 0.00 0.02 0.04 0.02 0.01 0.01 0.01 0.01 0.02 0.00 0.00 0.00 0.00 0.00 0.00 0.00 0.00 0.00 0.00 0.00 0.00
0.00 0.00 0.01 0.00 0.00 0.00 0.00 0.00 0.00 0.00 0.00 0.01 0.02 0.02 0.02 0.00 0.00 0.01 0.03 0.03 0.01 0.00 0.00 0.00 0.00 0.00 0.00 0.00 0.00 0.00 0.00 0.00
MSLP
1017.33 1018.06 1018.76 1019.33 1019.69 1020.04 1020.30 1020.59 1020.84 1021.14 1021.39 1021.71 1022.04 1022.42 1022.75 1023.20 1023.74 1024.17 1024.86 1025.21 1025.54 1025.89 1026.17 1026.39 1026.63 1026.88 1027.07 1027.16 1027.25 1027.13 1027.10 1027.50
1017.50 1018.01 1018.74 1019.40 1020.05 1020.38 1020.61 1020.93 1021.18 1021.51 1021.83 1022.14 1022.42 1022.71 1023.11 1023.57 1023.96 1024.65 1025.37 1025.71 1025.99 1026.33 1026.70 1026.96 1027.22 1027.44 1027.70 1027.77 1027.82 1027.49 1027.51 1027.73
1017.71 1017.93 1018.65 1019.42 1020.01 1020.70 1021.04 1021.37 1021.69 1021.95 1022.31 1022.62 1022.87 1023.03 1023.50 1023.90 1024.67 1025.24 1025.82 1026.22 1026.54 1026.89 1027.26 1027.50 1027.75 1028.00 1028.34 1028.39 1028.10 1028.05 1028.44 1028.74
1017.77 1018.14 1018.78 1019.53 1020.16 1020.69 1021.13 1021.54 1021.90 1022.19 1022.46 1022.91 1023.06 1023.65 1024.04 1024.62 1025.32 1025.91 1026.29 1026.82 1027.16 1027.52 1027.93 1028.08 1027.97 1028.17 1028.73 1028.85 1028.68 1028.77 1028.97 1029.15
1017.72 1018.32 1019.05 1019.58 1020.07 1020.71 1021.17 1021.69 1022.26 1022.73 1022.95 1023.07 1023.68 1024.16 1024.64 1025.23 1025.83 1026.40 1026.77 1027.09 1027.46 1027.95 1028.17 1028.21 1028.56 1028.70 1029.02 1029.20 1029.36 1029.26 1028.97 1029.52
1017.60 1018.29 1019.06 1019.60 1020.14 1020.82 1021.27 1021.83 1022.45 1022.85 1023.11 1023.41 1023.99 1024.41 1024.94 1025.47 1025.88 1026.59 1026.75 1027.18 1027.82 1028.11 1028.52 1028.97 1029.26 1029.50 1029.64 1029.92 1030.00 1029.88 1029.99 1030.16
1017.41 1018.19 1018.95 1019.49 1020.07 1020.85 1021.43 1021.98 1022.53 1022.98 1023.37 1023.78 1024.05 1024.44 1024.94 1025.52 1026.23 1026.69 1027.26 1027.75 1027.99 1028.38 1028.93 1029.27 1029.74 1030.04 1030.18 1030.40 1030.64 1030.81 1030.97 1030.78
1017.61 1018.29 1018.94 1019.44 1019.79 1020.75 1021.48 1022.03 1022.55 1023.07 1023.53 1023.94 1024.18 1024.53 1024.97 1025.56 1026.38 1026.87 1027.64 1027.87 1028.22 1028.66 1029.12 1029.55 1030.04 1030.50 1030.86 1031.06 1031.27 1031.37 1031.61 1031.67
1017.56 1018.31 1018.85 1019.46 1019.82 1020.56 1021.49 1022.09 1022.41 1023.08 1023.48 1023.97 1024.15 1024.56 1025.03 1025.71 1026.32 1026.94 1027.47 1028.14 1028.59 1029.12 1029.67 1029.98 1030.47 1031.03 1031.38 1031.66 1031.86 1032.17 1032.34 1032.47
1017.00 1017.80 1018.71 1019.42 1019.84 1020.47 1021.35 1022.12 1022.24 1022.74 1023.24 1023.81 1024.08 1024.52 1025.07 1025.73 1026.22 1026.61 1027.48 1028.16 1028.72 1029.14 1029.66 1030.08 1030.66 1031.28 1031.72 1032.00 1032.32 1032.65 1033.05 1033.21
1016.66 1017.28 1018.13 1019.24 1019.82 1020.64 1021.30 1021.76 1022.01 1022.28 1022.94 1023.61 1024.00 1024.45 1024.98 1025.58 1026.09 1026.81 1027.57 1027.92 1028.95 1029.27 1029.84 1030.25 1030.80 1031.50 1032.16 1032.48 1032.70 1033.02 1033.35 1033.66
1016.60 1017.30 1017.90 1019.01 1019.91 1020.73 1021.05 1021.60 1021.88 1022.18 1022.68 1023.34 1023.85 1024.26 1024.75 1025.44 1026.06 1027.04 1027.57 1027.75 1028.95 1029.59 1029.88 1030.58 1030.99 1031.44 1032.31 1033.05 1033.27 1033.55 1033.87 1034.03
1015.82 1016.77 1017.70 1018.22 1019.60 1020.15 1020.63 1020.70 1021.59 1021.90 1022.37 1023.01 1023.64 1024.02 1024.46 1025.06 1026.00 1026.87 1027.34 1027.90 1028.65 1029.70 1029.99 1030.52 1031.30 1031.86 1032.21 1033.15 1033.66 1034.05 1034.21 1034.29
1015.27 1016.14 1017.05 1017.56 1018.91 1019.56 1020.09 1020.23 1020.79 1021.34 1021.83 1022.52 1023.27 1023.67 1024.13 1024.64 1025.52 1026.43 1027.03 1027.85 1028.80 1029.60 1029.93 1030.33 1031.27 1031.49 1031.37 1032.27 1032.95 1033.98 1034.19 1034.30
1014.59 1015.27 1016.30 1017.27 1017.57 1019.26 1019.77 1020.19 1020.65 1021.15 1021.63 1022.11 1022.76 1023.13 1023.73 1024.15 1025.03 1025.79 1026.60 1027.35 1028.26 1028.91 1029.38 1029.54 1030.08 1031.10 1031.17 1030.98 1031.88 1031.79 1033.07 1034.01
1014.02 1015.01 1015.81 1016.76 1017.93 1018.28 1019.10 1019.24 1019.38 1020.09 1020.74 1021.28 1022.11 1022.70 1023.25 1023.68 1024.49 1025.24 1026.08 1026.84 1027.75 1028.40 1028.93 1028.95 1029.36 1029.95 1030.88 1031.09 1031.30 1031.23 1031.66 1032.98
1013.48 1014.19 1015.14 1015.72 1016.89 1018.07 1018.41 1018.54 1018.61 1019.28 1019.99 1020.69 1021.38 1022.10 1022.63 1023.28 1023.85 1024.66 1025.65 1026.34 1027.12 1027.70 1028.57 1028.86 1029.09 1029.24 1029.74 1030.37 1030.92 1031.07 1031.28 1031.30
1012.93 1013.53 1014.31 1015.30 1015.96 1016.93 1017.79 1017.62 1017.66 1018.08 1018.72 1019.70 1020.59 1021.45 1021.95 1022.58 1023.40 1023.96 1024.75 1025.74 1026.49 1027.16 1027.84 1028.32 1028.52 1028.99 1029.42 1029.69 1029.69 1029.90 1030.24 1030.60
1012.34 1012.99 1013.57 1014.63 1015.18 1015.18 1016.52 1016.93 1016.81 1016.84 1017.41 1018.21 1019.36 1020.58 1021.28 1021.84 1022.72 1023.47 1024.11 1024.99 1025.76 1026.44 1027.10 1027.59 1028.08 1028.54 1028.87 1029.10 1029.35 1029.54 1029.74 1030.10
1011.57 1012.09 1012.56 1013.39 1014.23 1014.15 1014.80 1015.65 1015.76 1016.04 1016.61 1017.51 1018.45 1019.22 1020.17 1020.86 1021.84 1022.59 1023.38 1024.29 1025.13 1025.85 1026.22 1026.72 1027.44 1028.11 1028.46 1028.68 1028.89 1029.15 1029.41 1029.63
Thickness
5715 5711 5707 5705 5703 5701 5701 5700 5700 5698 5697 5696 5695 5691 5689 5687 5684 5681 5674 5672 5669 5665 5662 5659 5656 5652 5649 5647 5644 5640 5638 5632
5711 5709 5705 5701 5697 5697 5697 5696 5696 5694 5693 5692 5691 5689 5686 5684 5682 5676 5669 5666 5663 5660 5656 5653 5650 5647 5644 5642 5638 5636 5633 5628
5708 5707 5703 5699 5695 5691 5691 5690 5689 5689 5688 5686 5686 5685 5681 5679 5675 5671 5664 5660 5657 5654 5650 5648 5645 5642 5638 5635 5633 5630 5624 5619
5705 5703 5700 5696 5692 5689 5686 5685 5684 5684 5683 5682 5682 5679 5676 5673 5668 5663 5659 5653 5650 5647 5644 5642 5641 5637 5631 5628 5626 5623 5618 5614
5704 5699 5695 5693 5690 5686 5684 5682 5679 5678 5678 5678 5676 5673 5670 5666 5662 5657 5653 5650 5646 5642 5639 5638 5634 5632 5627 5623 5619 5617 5616 5610
5699 5696 5692 5689 5686 5682 5681 5679 5676 5674 5674 5674 5672 5670 5666 5662 5659 5654 5651 5647 5642 5639 5635 5631 5628 5624 5621 5615 5612 5610 5608 5604
5693 5690 5687 5686 5682 5679 5676 5675 5672 5671 5670 5669 5669 5667 5665 5659 5654 5650 5646 5641 5639 5635 5630 5626 5622 5617 5613 5609 5606 5602 5599 5597
5685 5684 5681 5680 5680 5675 5672 5671 5669 5667 5666 5666 5665 5664 5662 5657 5651 5646 5640 5638 5634 5629 5625 5622 5617 5611 5606 5603 5599 5597 5593 5590
5676 5675 5676 5674 5674 5672 5668 5666 5666 5663 5663 5662 5662 5661 5658 5653 5649 5643 5638 5632 5628 5623 5618 5615 5610 5604 5600 5596 5593 5589 5586 5582
5672 5670 5669 5668 5668 5667 5664 5661 5663 5662 5661 5659 5659 5658 5655 5650 5646 5642 5635 5629 5624 5620 5615 5611 5605 5599 5595 5591 5587 5584 5579 5576
5668 5670 5667 5664 5662 5660 5659 5658 5660 5660 5659 5656 5656 5655 5652 5648 5644 5638 5633 5629 5620 5616 5611 5607 5601 5595 5589 5585 5582 5579 5575 5571
5662 5661 5662 5658 5655 5653 5653 5653 5656 5657 5656 5653 5652 5651 5649 5645 5640 5634 5630 5627 5618 5613 5609 5602 5597 5593 5586 5580 5576 5573 5570 5567
5661 5655 5656 5655 5647 5651 5652 5656 5653 5654 5653 5651 5649 5648 5647 5643 5638 5633 5628 5624 5619 5610 5607 5601 5594 5588 5585 5577 5571 5568 5566 5564
5658 5653 5651 5650 5645 5646 5647 5651 5651 5649 5649 5649 5646 5646 5645 5642 5638 5633 5628 5622 5616 5609 5606 5601 5591 5588 5590 5583 5577 5568 5565 5563
5656 5653 5648 5645 5643 5636 5638 5640 5641 5643 5647 5648 5645 5646 5643 5642 5637 5633 5628 5621 5615 5610 5607 5604 5598 5588 5589 5592 5582 5586 5573 5564
5651 5646 5643 5640 5635 5637 5636 5641 5647 5649 5649 5648 5644 5643 5641 5640 5636 5632 5627 5620 5614 5610 5605 5605 5600 5595 5588 5587 5585 5585 5582 5570
5645 5644 5641 5639 5638 5632 5632 5637 5645 5646 5646 5644 5644 5641 5640 5638 5636 5631 5625 5619 5615 5611 5605 5601 5599 5598 5595 5590 5586 5583 5581 5580
5642 5640 5637 5636 5635 5632 5631 5639 5643 5647 5648 5645 5644 5640 5639 5638 5634 5631 5626 5620 5616 5611 5607 5601 5600 5597 5594 5592 5592 5590 5586 5581
5636 5637 5634 5630 5632 5636 5633 5635 5642 5647 5651 5650 5646 5641 5640 5640 5634 5629 5626 5621 5617 5613 5607 5602 5598 5597 5594 5594 5592 5590 5587 5582
5632 5634 5635 5632 5631 5637 5637 5637 5643 5648 5649 5648 5646 5646 5642 5640 5634 5630 5626 5621 5617 5612 5609 5605 5599 5596 5594 5593 5592 5590 5587 5583